[Date Prev][Date Next][Thread Prev][Thread Next] - [Date Index][Thread Index][Author Index]
2 Line ISS Keps 3-28
- Subject: [sarex] 2 Line ISS Keps 3-28
- From: "Dave Larsen PhD" <doc@xxxxxxxxxxx>
- Date: Mon, 27 Mar 2006 19:24:49 -0800
ISS
1 25544U 98067A 06087.06307870 .00012306 00000-0 86130-4 0 6151
2 25544 051.6422 244.9615 0009133 052.3120 100.6144 15.74675817420375
----
Via the sarex mailing list at AMSAT.ORG courtesy of AMSAT-NA.
To unsubscribe, send "unsubscribe sarex" to Majordomo@amsat.org
AMSAT Home